Regional Weather Roundup
Issued by NWS

Home | Current Version | Previous Version | Text Only | Print | Product List | Glossary Off
Versions: 1 2 3 4 5 6 7 8 9 10 11 12 13 14 15 16 17 18 19 20 21 22 23 24 25 26 27 28 29 30 31 32 33 34 35 36 37 38 39 40 41 42 43 44 45 46 47 48 49 50

000
ASUS43 KLOT 310912
RWRIL

ILLINOIS REGIONAL WEATHER ROUNDUP
NATIONAL WEATHER SERVICE CHICAGO/ROMEOVILLE IL
400 AM CDT MON AUG 31 2015

NOTE: "FAIR" INDICATES FEW OR NO CLOUDS BELOW 12,000 FEET WITH NO
SIGNIFICANT WEATHER AND/OR OBSTRUCTIONS TO VISIBILITY.

* THESE STATIONS ARE NOT UNDER NWS QUALITY CONTROL. THEY ALSO MAY NOT
  REPORT WEATHER SUCH AS PRECIPITATION OR FOG.

ILZ001-002-007-009-015-016-024-311000-
NORTHWEST ILLINOIS

CITY           SKY/WX    TMP DP  RH WIND       PRES   REMARKS
MOLINE         CLEAR     62  59  90 E3        30.02S
STERLING*        N/A    N/A N/A N/A MISG        N/A
SAVANNA*       CLEAR     59  58  95 CALM      30.03R FOG
$$

ILZ003-004-008-010-011-017-018-311000-
NORTH CENTRAL ILLINOIS

CITY           SKY/WX    TMP DP  RH WIND       PRES   REMARKS
ROCKFORD       FOG       59  56  89 CALM      30.05S VSB 3/4
FREEPORT*      FOG       56  56  99 CALM      30.05S VSB 1/4
ROCHELLE*      CLEAR     56  56  99 CALM      30.05R FOG
DE KALB*       FOG       59  59  99 CALM      30.05S VSB<1/4
PERU*          MOCLDY    64  63  96 CALM      30.04F FOG
$$

ILZ005-006-012>014-019>023-311000-
NORTHEAST ILLINOIS

CITY           SKY/WX    TMP DP  RH WIND       PRES   REMARKS
CHICAGO-OHARE  PTCLDY    62  62 100 CALM      30.03S FOG
CHICAGO-MIDWAY PTCLDY    67  63  87 CALM      30.03S FOG
AURORA         FOG       60  59  96 CALM      30.05R VSB<1/4
LANSING*       MOCLDY    59  59 100 CALM      30.04S FOG
JOLIET*        FOG       61  61  99 CALM      30.03S VSB 1
WAUKEGAN       FOG       62  62 100 CALM      30.03S VSB 1/4
DUPAGE AIRPORT FOG       60  58  92 CALM      30.04R VSB<1/4
KANKAKEE*      FOG       62  62  99 CALM      30.04S VSB 1/4
WHEELING       CLOUDY    58  57  97 CALM      30.05R FOG
MORRIS*        FOG       60  60  97 CALM      30.02F VSB 3/4
ROMEOVILLE*    FOG       60  60 100 CALM      30.04S VSB 1/4
NORTHERLY ISL    N/A     66  64  93 CALM        N/A
$$

LMZ740>746-311000-
SOUTHERN LAKE MICHIGAN

STATION/POSITION SKY/WX   TEMP    WIND        PRES    VSBY  WAVE
                          AIR SEA DIR/SP/G                  HT/PER
                          (F)     (DEG/KT/KT) (MB)    (MI)  (FT/S)
SOUTHERN BUOY              68 68  190/  6/  6 1016.7S         0
WILMETTE HARBOR            62 60   CALM  /  2   N/A           0
HARRISON CRIB              68     180/  3/  3   N/A
BURNHAM HARBOR             66      CALM  /  2   N/A
BURNS HARBOR               68     170/  3/  5 1017.3F
MICHIGAN CITY              66     120/  6/  7   N/A
MICHIGAN CITY 6N           68 71  160/  2/  4   N/A           0
ST. JOSEPH                 67 71  180/  6/  6   N/A           0
$$

ILZ025>027-034>036-040-047-049-050-058-095>099-311000-
WEST-CENTRAL ILLINOIS

CITY           SKY/WX    TMP DP  RH WIND       PRES   REMARKS
QUINCY         CLEAR     70  68  93 SE5       30.00R FOG
GALESBURG*     CLEAR     66  65  96 E3        30.02F FOG
MACOMB*        FOG       62  62 100 NE3       30.03F VSB 3/4
JACKSONVILLE*  CLEAR     73  70  92 S5        30.01S
PITTSFIELD*    CLEAR     67  65  94 CALM      30.02S FOG
$$

ILZ028>032-037-038-041>044-048-051>054-059>061-311000-
CENTRAL ILLINOIS

CITY           SKY/WX    TMP DP  RH WIND       PRES   REMARKS
PONTIAC        FOG       62  62 100 CALM      30.04S VSB 3/4
BLOOMINGTON    CLEAR     68  68 100 S3        30.05S FOG
DECATUR        CLEAR     70  67  90 S3        30.03S
PEORIA         CLEAR     68  65  90 NE6       30.02S
LACON*         CLEAR     62  61  96 CALM      30.02S FOG
LINCOLN*       CLEAR     67  65  94 CALM      30.02S FOG
SPRINGFIELD    CLEAR     71  69  93 CALM      30.02R
TAYLORVILLE    CLEAR     70  68  94 S6        30.02S FOG
$$

ILZ033-039-045-046-055>057-062-063-311000-
EAST-CENTRAL ILLINOIS

CITY           SKY/WX    TMP DP  RH WIND       PRES   REMARKS
CHAMPAIGN      PTCLDY    66  64  93 CALM      30.04S FOG
RANTOUL*       CLEAR     69  67  95 CALM      30.04S FOG
MATTOON        PTCLDY    70  67  90 S7        30.03F FOG
PARIS*         CLEAR     68  68  98 S5        30.06R
$$

ILZ079-100>102-311000-
SOUTHWEST ILLINOIS

CITY           SKY/WX    TMP DP  RH WIND       PRES   REMARKS
ALTON          CLOUDY    72  70  95 S3        30.02S
BELLEVILLE     CLEAR     71  71 100 E2        30.01S
CAHOKIA*       CLEAR     72  69  90 CALM      30.01S
SPARTA*        CLEAR     71  68  91 S3        30.04S
$$

ILZ064>066-069>071-074>076-080>082-084>086-088>090-092>094-311000-
SOUTH-CENTRAL ILLINOIS

CITY           SKY/WX    TMP DP  RH WIND       PRES   REMARKS
CARBONDALE     MOCLDY    69  67  93 CALM      30.04R
CAIRO*         CLEAR     65  65 100 CALM      30.05R
EFFINGHAM*     MOCLDY    69  66  92 CALM      30.05F
MARION         CLOUDY    70  68  94 CALM      30.05R
MT. VERNON     CLOUDY    70  63  78 CALM      30.05S
SALEM*         MOCLDY    73  69  87 S5        30.04R
METROPOLIS*    FOG       65  65 100 CALM      30.06R VSB 1/2
$$

ILZ067-068-072-073-078-083-087-091-311000-
SOUTHEAST ILLINOIS

CITY           SKY/WX    TMP DP  RH WIND       PRES   REMARKS
LAWRENCEVILLE  CLEAR     66  64  93 S5        30.05S FOG
FLORA*         PTCLDY    67  66  97 CALM      30.05S
FAIRFIELD*     MOCLDY    67  67  99 CALM      30.04S
HARRISBURG*    PTCLDY    66  66  99 CALM      30.05S FOG
ROBINSON*      PTCLDY    63  62  96 CALM      30.06S FOG
CARMI*         CLEAR     65  65 100 CALM      30.05S FOG
$$

ABBREVIATIONS USED IN REMARKS
   TC - TEMPERATURE IN CELSIUS
  WCI - WIND CHILL INDEX
   HX - HEAT INDEX
  VSB - VISIBILITY
$$




USA.gov is the U.S. government's official web portal to all federal, state and local government web resources and services.